DW2199 Weather Reports


Display with metric or nautical units.
time (UTC)temp
F
wind
direction
speed
MPH
gust
MPH
rain 1hr
in
rain 24hr
in
rain mn
in
humidity
%
barometer
mb
20260510060023 51 226 0.0 2.0 0.00 0.00 0.00 96 1009.1
20260510054523 51 173 0.0 5.0 0.00 0.00 0.00 96 1008.7
20260510053022 51 349 0.0 1.0 0.00 0.00 0.00 96 1008.6
20260510051523 51 348 0.0 1.0 0.00 0.00 0.00 96 1008.5
20260510050021 51 347 0.0 1.0 0.00 0.00 0.00 96 1008.5
20260510044512 51 356 0.0 2.0 0.00 0.00 0.00 96 1008.8
20260510043111 51 356 1.0 3.0 0.00 0.00 0.00 96 1008.9
20260510041508 51 344 0.0 2.0 0.00 0.00 0.00 96 1008.5
20260510040007 50 212 0.0 4.0 0.00 0.00 0.00 96 1008.6
20260510034503 50 183 0.0 2.0 0.00 0.00 0.00 96 1008.6
20260510033128 49 181 0.0 1.0 0.00 0.00 0.00 96 1008.5
20260510031624 49 200 0.0 0.0 0.00 0.00 0.00 96 1008.6
20260510024545 48 200 0.0 0.0 0.00 0.00 0.00 96 1008.7
20260510023041 48 200 0.0 0.0 0.00 0.00 0.00 96 1008.8
20260510021539 48 200 0.0 0.0 0.00 0.00 0.00 96 1008.7
20260510020033 48 200 0.0 0.0 0.00 0.00 0.00 96 1008.9
20260510014533 48 200 0.0 0.0 0.00 0.00 0.00 95 1008.8
20260510013037 48 200 0.0 0.0 0.00 0.00 0.00 95 1008.8
20260510011528 48 200 0.0 0.0 0.00 0.00 0.00 95 1008.8
20260510010027 48 200 0.0 1.0 0.00 0.00 0.00 95 1008.8
20260510004512 48 200 0.0 0.0 0.00 0.00 0.00 95 1009.1
20260510003010 48 200 0.0 0.0 0.00 0.00 0.00 95 1009.0
20260510001515 48 200 0.0 0.0 0.00 0.00 0.00 95 1008.8
20260510000001 48 200 0.0 0.0 0.00 0.00 0.00 95 1008.6
20260509234611 48 200 0.0 0.0 0.00 0.00 0.00 95 1008.5
20260509233057 48 200 0.0 0.0 0.00 0.00 0.00 95 1008.5
20260509231555 48 200 0.0 1.0 0.00 0.00 0.00 95 1008.3
20260509230053 48 200 0.0 0.0 0.00 0.00 0.00 95 1008.3
20260509224529 48 200 0.0 0.0 0.00 0.00 0.00 95 1008.3
20260509223027 48 200 0.0 0.0 0.00 0.00 0.00 95 1008.4
20260509221515 48 200 0.0 0.0 0.00 0.00 0.00 95 1008.4
20260509220014 48 200 0.0 0.0 0.00 0.00 0.00 95 1008.5
20260509214517 48 200 0.0 0.0 0.00 0.00 0.00 95 1008.7
20260509213010 48 200 0.0 0.0 0.00 0.00 0.00 95 1008.9
20260509211508 48 200 0.0 1.0 0.00 0.00 0.00 95 1009.0
20260509210009 47 200 0.0 1.0 0.00 0.00 0.00 95 1009.1
20260509204515 47 200 0.0 0.0 0.00 0.00 0.00 94 1009.2
20260509203008 47 200 0.0 0.0 0.00 0.00 0.00 94 1009.3
20260509201551 47 203 0.0 1.0 0.00 0.00 0.00 94 1009.5
20260509200050 47 203 0.0 0.0 0.00 0.00 0.00 94 1009.7
20260509194554 48 203 0.0 0.0 0.00 0.00 0.00 94 1009.8
20260509193048 47 203 0.0 0.0 0.00 0.00 0.00 93 1009.9
20260509191552 47 203 0.0 0.0 0.00 0.00 0.00 93 1010.0
20260509190047 47 203 0.0 1.0 0.00 0.00 0.00 93 1010.1
20260509184543 48 203 0.0 0.0 0.00 0.00 0.00 93 1010.2
20260509183041 47 203 0.0 1.0 0.00 0.00 0.00 93 1010.2
20260509181528 47 203 0.0 1.0 0.00 0.00 0.00 93 1010.2
20260509180026 47 197 0.0 0.0 0.00 0.00 0.00 93 1010.2
20260509174526 47 197 0.0 0.0 0.00 0.00 0.00 93 1010.5
20260509173021 46 198 0.0 0.0 0.00 0.00 0.00 93 1010.6
20260509171519 46 198 0.0 1.0 0.00 0.00 0.00 92 1010.7
20260509170018 46 197 0.0 0.0 0.00 0.00 0.00 92 1011.0
20260509164516 46 197 0.0 1.0 0.00 0.00 0.00 91 1011.2
20260509163019 45 197 0.0 1.0 0.00 0.00 0.00 91 1011.3
20260509161612 45 197 0.0 1.0 0.00 0.00 0.00 90 1011.5
20260509160058 45 197 0.0 1.0 0.00 0.00 0.00 89 1011.8
20260509154601 46 198 0.0 1.0 0.00 0.00 0.00 86 1011.8
20260509153034 47 198 0.0 0.0 0.00 0.00 0.00 86 1012.0
20260509151533 46 197 0.0 0.0 0.00 0.00 0.00 86 1012.1
20260509150020 46 197 0.0 0.0 0.00 0.00 0.00 83 1012.2
20260509144516 46 197 0.0 0.0 0.00 0.00 0.00 78 1012.2
20260509143018 45 197 0.0 1.0 0.00 0.00 0.00 80 1012.1
20260509141511 45 197 0.0 1.0 0.00 0.00 0.00 78 1012.3
20260509140009 45 197 0.0 0.0 0.00 0.00 0.00 77 1012.2
20260509134508 45 197 0.0 1.0 0.00 0.00 0.00 77 1012.0
20260509133007 45 197 0.0 0.0 0.00 0.00 0.00 76 1012.1
20260509131504 45 194 0.0 1.0 0.00 0.00 0.00 72 1012.0
20260509130104 45 203 0.0 1.0 0.00 0.00 0.00 74 1012.1
20260509124603 44 186 0.0 2.0 0.00 0.00 0.00 77 1012.1
20260509123052 44 199 0.0 3.0 0.00 0.00 0.00 80 1012.3
20260509121600 43 208 0.0 1.0 0.00 0.00 0.00 82 1012.4
20260509120051 41 174 0.0 0.0 0.00 0.00 0.00 86 1012.5
20260509114550 40 174 0.0 1.0 0.00 0.00 0.00 89 1012.6
20260509113055 38 175 0.0 0.0 0.00 0.00 0.00 90 1012.6
20260509111556 36 174 0.0 0.0 0.00 0.00 0.00 92 1012.5
20260509110037 35 174 0.0 0.0 0.00 0.00 0.00 92 1012.7
20260509104536 34 174 0.0 0.0 0.00 0.00 0.00 93 1012.7
20260509103036 32 174 0.0 0.0 0.00 0.00 0.00 93 1012.7
20260509101534 31 174 0.0 0.0 0.00 0.00 0.00 92 1012.6
20260509100034 31 174 0.0 0.0 0.00 0.00 0.00 92 1012.6
20260509094533 31 174 0.0 0.0 0.00 0.00 0.00 92 1012.6
20260509093032 31 174 0.0 0.0 0.00 0.00 0.00 91 1012.6
20260509091532 32 174 0.0 0.0 0.00 0.00 0.00 91 1012.5
20260509090019 32 174 0.0 2.0 0.00 0.00 0.00 91 1012.3
20260509084520 32 174 0.0 0.0 0.00 0.00 0.00 91 1012.3
20260509083017 32 174 0.0 0.0 0.00 0.00 0.00 91 1012.3
20260509081519 32 174 0.0 0.0 0.00 0.00 0.00 91 1012.3
20260509080018 32 174 0.0 1.0 0.00 0.00 0.00 91 1012.2
20260509074516 32 174 0.0 0.0 0.00 0.00 0.00 91 1012.0
20260509073013 32 174 0.0 0.0 0.00 0.00 0.00 91 1011.9
20260509071516 32 174 0.0 0.0 0.00 0.00 0.00 91 1012.1
20260509070053 32 174 0.0 0.0 0.00 0.00 0.00 90 1012.3
20260509064552 32 174 0.0 0.0 0.00 0.00 0.00 90 1012.3
20260509063039 32 174 0.0 0.0 0.00 0.00 0.00 90 1012.5
20260509061542 32 174 0.0 0.0 0.00 0.00 0.00 90 1012.6